This is the latest recevied weather packets stored in our database for station/object DF7ER-12. If no packets are shown the sender has not sent any weather packets the latest 10 day(s).
| Time | Temp. | Humidity | Pressure | Rain* | Wind** | Luminosity | Snow |
|---|---|---|---|---|---|---|---|
| 1788202849 | 21.11° C | 84% | 1001.4 hPa | - | - | - | - |
| 1788202549 | 21.11° C | 85% | 1001.4 hPa | - | - | - | - |
| 1788202249 | 21.11° C | 83% | 1001.3 hPa | - | - | - | - |
| 1788201949 | 21.11° C | 84% | 1001.2 hPa | - | - | - | - |
| 1788201649 | 21.11° C | 85% | 1001.2 hPa | - | - | - | - |
| 1788201349 | 21.11° C | 84% | 1001 hPa | - | - | - | - |
| 1788201050 | 21.67° C | 82% | 1001.1 hPa | - | - | - | - |
| 1788200749 | 21.11° C | 84% | 1001.2 hPa | - | - | - | - |
| 1788200450 | 21.11° C | 84% | 1001.1 hPa | - | - | - | - |
| 1788200149 | 21.11° C | 82% | 1000.9 hPa | - | - | - | - |
| 1788199849 | 20° C | 85% | 1000.7 hPa | - | - | - | - |
| 1788199549 | 20° C | 84% | 1000.6 hPa | - | - | - | - |
| 1788199249 | 21.11° C | 81% | 1000.6 hPa | - | - | - | - |
| 1788198950 | 21.67° C | 79% | 1000.5 hPa | - | - | - | - |
| 1788198649 | 20.56° C | 76% | 1000.4 hPa | - | - | - | - |
| 1788198350 | 22.22° C | 75% | 1000.2 hPa | - | - | - | - |
| 1788198049 | 22.78° C | 73% | 1000.1 hPa | - | - | - | - |
| 1788197749 | 22.78° C | 73% | 1000 hPa | - | - | - | - |
| 1788197450 | 22.78° C | 73% | 1000.1 hPa | - | - | - | - |
| 1788197150 | 22.78° C | 73% | 1000 hPa | - | - | - | - |
| 1788196849 | 22.78° C | 73% | 1000 hPa | - | - | - | - |
| 1788196549 | 23.33° C | 72% | 999.9 hPa | - | - | - | - |
| 1788196249 | 22.78° C | 73% | 999.9 hPa | - | - | - | - |
| 1788195949 | 23.33° C | 71% | 999.9 hPa | - | - | - | - |
| 1788195649 | 23.33° C | 71% | 999.8 hPa | - | - | - | - |
* Rain since midnight (hover to see other rain measurements)
** Current wind speed in m/s (hover to see current wind gust speed)